Torna al catalogo

DELTA 1 DEB

LostLEO
NORAD 29190·DEBRIS·🇺🇸 United States

Lanciato Jan 11, 1968 da Vandenberg Space Force Base

Loading…

Prossimi Passaggi (prossime 24 ore)

TLE

ObsoletoSource: Space-Track

Epoca: Jun 18, 2026, 15:47 UTC

1 29190U 68002P   26169.65778812  .00001231  00000-0  25160-2 0  9998
2 29190 105.8457  91.2445 0279835  38.4622 323.6061 13.23560005228319

Traccia DELTA 1 DEB in tempo reale con AllMySat

Download on the App Store